Wheaton NDB, MN

1:47 PM CDT on June 28, 2017 (GMT -0500)
Wheaton Municipal

Weather History for KETH - November, 2011

Change the Weather History Date:

Monday, November 28, 2011

  Actual Average Record
Temperature  
Mean Temperature 36 °F -  
Max Temperature 51 °F 29 °F 53 °F (1962)
Min Temperature 21 °F 12 °F -12 °F (1985)
Degree Days  
Heating Degree Days 29    
Moisture  
Dew Point 24 °F    
Average Humidity 70    
Maximum Humidity 86    
Minimum Humidity 46    
Precipitation  
Precipitation 0.00 in - - ()
Sea Level Pressure  
Sea Level Pressure 30.08 in    
Wind  
Wind Speed 11 mph (SW)    
Max Wind Speed 23 mph    
Max Gust Speed 29 mph    
Visibility 10 miles    
Events      
Averages and records for this station are not official NWS values.
T = Trace of Precipitation, MM = Missing Value Source: NWS Daily Summary

Daily Weather History Graph

Daily Weather History Graph

Search for Another Location

Airport or City:

Trip Planner

Search our weather history database for the weather conditions in past years. The results will help you decide how hot, cold, wet, or windy it might be!

Date:

Astronomy

Nov. 28, 2011 Rise Set
Actual Time 7:42 AM CST 4:44 PM CST
Civil Twilight 7:09 AM CST 5:18 PM CST
Nautical Twilight 6:32 AM CST 5:55 PM CST
Astronomical Twilight 5:56 AM CST 6:31 PM CST
Moon 10:51 AM CST 8:35 PM CST
Length of Visible Light 10h 08m
Length of Day
9h 01m
Waxing Crescent, 16% of the Moon is Illuminated
Nov 28
Waxing Crescent
Dec 2
First Quarter
Dec 10
Full
Dec 17
Last Quarter
Dec 24
New

Hourly Weather History & Observations

Time (CST) Temp. Windchill Dew Point Humidity Pressure Visibility Wind Dir Wind Speed Gust Speed Precip Events Conditions
12:15 AM 23.0 °F 11.7 °F 19.4 °F 86% 30.08 in 10.0 mi SSE 11.5 mph - N/A   Clear
12:35 AM 23.0 °F 10.6 °F 19.4 °F 86% 30.07 in 10.0 mi SE 13.8 mph - N/A   Clear
12:55 AM 21.2 °F 8.9 °F 17.6 °F 86% 30.06 in 10.0 mi SE 12.7 mph - N/A   Clear
1:15 AM 23.0 °F 10.6 °F 17.6 °F 80% 30.07 in 10.0 mi SE 13.8 mph - N/A   Clear
1:35 AM 23.0 °F 11.1 °F 17.6 °F 80% 30.05 in 10.0 mi SE 12.7 mph - N/A   Clear
1:55 AM 21.2 °F 9.5 °F 17.6 °F 86% 30.05 in 10.0 mi SE 11.5 mph - N/A   Clear
2:15 AM 21.2 °F 7.3 °F 17.6 °F 86% 30.04 in 10.0 mi SE 16.1 mph - N/A   Clear
2:55 AM 23.0 °F 10.1 °F 17.6 °F 80% 30.03 in 10.0 mi SE 15.0 mph - N/A   Clear
3:15 AM 23.0 °F 12.4 °F 17.6 °F 80% 30.04 in 10.0 mi SSE 10.4 mph - N/A   Clear
3:35 AM 21.2 °F 8.9 °F 17.6 °F 86% 30.03 in 10.0 mi SE 12.7 mph - N/A   Clear
4:41 AM 21.2 °F 11.7 °F 17.6 °F 86% 30.00 in 10.0 mi ESE 8.1 mph - N/A   Clear
4:55 AM 21.2 °F 9.5 °F 17.6 °F 86% 29.99 in 10.0 mi SE 11.5 mph - N/A   Clear
5:36 AM 23.0 °F 13.9 °F 17.6 °F 80% 29.97 in 10.0 mi SE 8.1 mph - N/A   Clear
5:55 AM 23.0 °F 13.1 °F 17.6 °F 80% 29.96 in 10.0 mi SE 9.2 mph - N/A   Clear
6:15 AM 23.0 °F 11.1 °F 17.6 °F 80% 29.95 in 10.0 mi SE 12.7 mph 18.4 mph N/A   Clear
6:35 AM 24.8 °F 13.4 °F 17.6 °F 74% 29.95 in 10.0 mi SE 12.7 mph - N/A   Clear
6:56 AM 24.8 °F 12.9 °F 17.6 °F 74% 29.95 in 10.0 mi SE 13.8 mph - N/A   Clear
7:15 AM 23.0 °F 13.1 °F 17.6 °F 80% 29.96 in 10.0 mi SE 9.2 mph - N/A   Clear
7:55 AM 24.8 °F 14.6 °F 17.6 °F 74% 29.96 in 10.0 mi SSE 10.4 mph - N/A   Clear
8:15 AM 24.8 °F 15.3 °F 17.6 °F 74% 29.97 in 10.0 mi SSE 9.2 mph - N/A   Clear
8:36 AM 24.8 °F 16.1 °F 17.6 °F 74% 29.98 in 10.0 mi SSE 8.1 mph - N/A   Clear
8:55 AM 26.6 °F 16.8 °F 17.6 °F 69% 29.98 in 10.0 mi SSE 10.4 mph - N/A   Clear
9:36 AM 30.2 °F 21.9 °F 19.4 °F 64% 29.98 in 10.0 mi SSE 9.2 mph - N/A   Clear
9:55 AM 30.2 °F 21.9 °F 21.2 °F 69% 29.99 in 10.0 mi SSE 9.2 mph - N/A   Clear
10:17 AM 32.0 °F 27.5 °F 21.2 °F 64% 30.01 in 10.0 mi South 4.6 mph - N/A   Clear
10:35 AM 33.8 °F 29.6 °F 21.2 °F 60% 30.01 in 10.0 mi South 4.6 mph - N/A   Clear
10:55 AM 35.6 °F 30.7 °F 23.0 °F 60% 30.02 in 10.0 mi South 5.8 mph - N/A   Clear
11:15 AM 39.2 °F 37.0 °F 24.8 °F 56% 30.02 in 10.0 mi South 3.5 mph - N/A   Clear
11:36 AM 42.8 °F 41.1 °F 24.8 °F 49% 30.01 in 10.0 mi SW 3.5 mph - N/A   Clear
11:55 AM 44.6 °F 40.7 °F 24.8 °F 46% 30.02 in 10.0 mi West 6.9 mph - N/A   Clear
12:15 PM 44.6 °F 43.1 °F 24.8 °F 46% 30.02 in 10.0 mi West 3.5 mph - N/A   Clear
12:35 PM 42.8 °F 40.1 °F 24.8 °F 49% 30.03 in 10.0 mi WNW 4.6 mph - N/A   Clear
1:15 PM 48.2 °F - 28.4 °F 46% 30.04 in 10.0 mi NW 17.3 mph 21.9 mph N/A   Clear
1:35 PM 48.2 °F - 28.4 °F 46% 30.05 in 10.0 mi NW 10.4 mph - N/A   Clear
1:57 PM 51.8 °F - 32.0 °F 47% 30.07 in 10.0 mi NNW 23.0 mph 28.8 mph N/A   Clear
2:16 PM 50.0 °F - 33.8 °F 54% 30.08 in 10.0 mi NNW 19.6 mph 28.8 mph N/A   Clear
2:36 PM 48.2 °F - 33.8 °F 58% 30.09 in 10.0 mi NNW 16.1 mph 23.0 mph N/A   Clear
2:55 PM 48.2 °F - 33.8 °F 58% 30.11 in 10.0 mi NNW 17.3 mph 24.2 mph N/A   Clear
3:16 PM 46.4 °F 39.8 °F 33.8 °F 62% 30.12 in 10.0 mi NW 16.1 mph 24.2 mph N/A   Clear
3:35 PM 46.4 °F 39.8 °F 33.8 °F 62% 30.14 in 10.0 mi NW 16.1 mph 21.9 mph N/A   Clear
3:56 PM 46.4 °F 39.8 °F 33.8 °F 62% 30.16 in 10.0 mi NW 16.1 mph 21.9 mph N/A   Clear
4:15 PM 46.4 °F 39.8 °F 33.8 °F 62% 30.18 in 10.0 mi NNW 16.1 mph 23.0 mph N/A   Clear
4:35 PM 44.6 °F 38.4 °F 32.0 °F 61% 30.20 in 10.0 mi NNW 12.7 mph 20.7 mph N/A   Clear
4:56 PM 42.8 °F 37.5 °F 30.2 °F 61% 30.21 in 10.0 mi NNW 9.2 mph - N/A   Clear
5:15 PM 39.2 °F 33.6 °F 32.0 °F 75% 30.21 in 10.0 mi NNW 8.1 mph - N/A   Clear
5:35 PM 37.4 °F 30.3 °F 30.2 °F 75% 30.23 in 10.0 mi NW 10.4 mph - N/A   Clear
5:55 PM 37.4 °F 31.4 °F 30.2 °F 75% 30.25 in 10.0 mi NW 8.1 mph - N/A   Clear
6:15 PM 37.4 °F 30.8 °F 30.2 °F 75% 30.26 in 10.0 mi NW 9.2 mph - N/A   Clear
6:35 PM 35.6 °F 29.9 °F 30.2 °F 81% 30.27 in 10.0 mi NW 6.9 mph - N/A   Clear
6:55 PM 33.8 °F 27.0 °F 28.4 °F 81% 30.27 in 10.0 mi WNW 8.1 mph - N/A   Clear
7:15 PM 33.8 °F 27.0 °F 28.4 °F 81% 30.27 in 10.0 mi NW 8.1 mph - N/A   Clear
7:37 PM 35.6 °F 27.1 °F 28.4 °F 75% 30.28 in 10.0 mi NW 12.7 mph 18.4 mph N/A   Clear
8:16 PM 35.6 °F 26.6 °F 26.6 °F 70% 30.30 in 10.0 mi NW 13.8 mph - N/A   Clear
8:35 PM 33.8 °F 25.8 °F 26.6 °F 75% 30.31 in 10.0 mi NW 10.4 mph 16.1 mph N/A   Clear
8:56 PM 33.8 °F 24.8 °F 24.8 °F 70% 30.31 in 10.0 mi NW 12.7 mph - N/A   Clear
9:15 PM 33.8 °F 25.8 °F 24.8 °F 70% 30.32 in 10.0 mi NW 10.4 mph - N/A   Clear
9:36 PM 32.0 °F 24.2 °F 24.8 °F 75% 30.32 in 10.0 mi NW 9.2 mph - N/A   Clear
9:55 PM 30.2 °F 21.3 °F 23.0 °F 75% 30.33 in 10.0 mi NW 10.4 mph - N/A   Clear
10:15 PM 30.2 °F 20.8 °F 21.2 °F 69% 30.34 in 10.0 mi NW 11.5 mph - N/A   Clear
10:55 PM 28.4 °F 19.1 °F 21.2 °F 74% 30.35 in 10.0 mi NW 10.4 mph - N/A   Clear
11:15 PM 28.4 °F 19.1 °F 21.2 °F 74% 30.36 in 10.0 mi NW 10.4 mph - N/A   Clear
11:35 PM 28.4 °F 18.5 °F 21.2 °F 74% 30.37 in 10.0 mi NW 11.5 mph - N/A   Clear
11:55 PM 28.4 °F 20.4 °F 19.4 °F 69% 30.38 in 10.0 mi NW 8.1 mph - N/A   Clear